Location: Newark
(45.9456°N, 15.4064°E)
Time: 20:58:27
(UTC+00:00)

Courier 1B Rocket - Pass Details

Date: 26 January 2020
Orbit: 920 x 1202 km, 28.2° (Epoch: 27 February)

Event Time Altitude Azimuth Distance (km) Brightness Sun altitude
Rises 13:37:01 0° 246° (WSW) 3,798 9.2 17.3°
Reaches altitude 10° 13:41:27 10° 221° (SW) 2,775 10.1 16.9°
Maximum altitude 13:44:21 13° 194° (SSW) 2,508 8.7 16.6°
Drops below altitude 10° 13:47:12 10° 168° (SSE) 2,695 8.0 16.3°
Sets 13:51:22 0° 142° (SE) 3,592 8.1 15.8°
